GOES 15

Last updated on Fri Dec 19 2025 00:02:37 GMT+0000 (Coordinated Universal Time)

1 36411U 10008A 25352.63014545 .00000063 00000+0 00000+0 0 9996 2 36411 0.8275 86.0859 0005473 176.9590 112.6690 1.00270715 57821
UTC large
Height (km)
Speed (km/s)
/
Latitude / Longitude
Inclination (degrees)
Orbital Period (minutes)
Azimuth
Elevation
Range (km)
Doppler Factor

Next 0 passes for location: London (51.5072 / 0.1276)

Sorry there are no passes over London.